Weather in Norovka

Russia / Oryol Oblast     52°13′39″N   37°47′56″E
temp.,
°C
wind,
m/s
gust,
m/s
humid.,
%
clouds,
%
prec.,
mm/h
press.,
hPa
HPBL,
m
11 april, sun
sun1100:00+5n11540 0.0 102710
03:00+3nnw22611 0.0 102812
06:00+2nnw3366100 0.0 102922
09:00+7ne345321 0.0 1030278
12:00+11ne454012 0.0 10291017
15:00+13ne56355 0.0 10291262
18:00+12ne5842100 0.0 1029533
21:00+8ne41059100 0.0 1030237
12 april, mon
mon1200:00+6ne5126399 0.0 1029311
03:00+5ne51270100 0.0 1029362
06:00+5ne51083100 0.0 1028318
09:00+7ene5883100 0.0 1028363
12:00+13e5769100 0.0 1026577
15:00+18e685586 0.0 1025922
18:00+18e485645 0.0 1024182
21:00+13e4126966 0.0 1024205
13 april, tue
tue1300:00+11ese4117251 0.0 1024178
03:00+10se41076100 0.0 1025163
06:00+9se41075100 0.0 1025158
09:00+13se596099 0.0 1025322
12:00+18se684243 0.0 10241139
15:00+20se68366 0.0 10231919
18:00+18ese594150 0.0 1022299
21:00+14ese513555 0.0 1022261
14 april, wed
wed1400:00+12se5126074 0.0 1022251
03:00+10ese4106958 0.0 1022158
06:00+10ese41068100 0.0 1021172
09:00+14se485129 0.0 1021331
12:00+19se693197 0.0 10191331
15:00+19se6729100 0.0 10181790
18:00+17ese4740100 0.0 1017286
21:00+14ese3644100 0.0 101789
15 april, thu
thu1500:00+12ese41154100 0.0 1017238
03:00+11ese3461100 0.0 101673
06:00+11ese3763100 0.0 1016133
09:00+13sse3557100 0.0 1016347
12:00+17ese334288 0.0 1015993
15:00+19se3535100 0.0 10141992
18:00+18ese3641100 0.0 1013270
21:00+14ese3349100 0.0 101335